Satellite: NOAA-11
Catalog number: 19531
Epoch time: 13269.35056604
Element set: 526
Inclination: 098.7055 deg
RA of node: 349.9708 deg
Eccentricity: 0.0010483
Arg of perigee: 337.0028 deg
Mean anomaly: 064.9297 deg
Mean motion: 14.15028522 rev/day
Decay rate: 3.9e-07 rev/day^2
Epoch rev: 29043
Checksum: 305
Satellite: NOAA-12
Catalog number: 21263
Epoch time: 13269.46947225
Element set: 989
Inclination: 098.6915 deg
RA of node: 294.0238 deg
Eccentricity: 0.0012719
Arg of perigee: 285.4551 deg
Mean anomaly: 179.3491 deg
Mean motion: 14.25586863 rev/day
Decay rate: 1.9e-07 rev/day^2
Epoch rev: 16298
Checksum: 348
Satellite: MET-3/5
Catalog number: 21655
Epoch time: 13268.83080478
Element set: 792
Inclination: 082.5595 deg
RA of node: 183.1905 deg
Eccentricity: 0.0012310
Arg of perigee: 235.2672 deg
Mean anomaly: 124.7292 deg
Mean motion: 13.17053418 rev/day
Decay rate: -4.44e-06 rev/day^2
Epoch rev: 6318
Checksum: 299
Satellite: MET-2/21
Catalog number: 22782
Epoch time: 13268.78732166
Element set: 852
Inclination: 082.5526 deg
RA of node: 023.0906 deg
Eccentricity: 0.0021080
Arg of perigee: 287.0124 deg
Mean anomaly: 181.5980 deg
Mean motion: 13.83714052 rev/day
Decay rate: 7.4e-07 rev/day^2
Epoch rev: 1355
Checksum: 286
Satellite: OKEAN-4
Catalog number: 23317
Epoch time: 13268.84452344
Element set: 333
Inclination: 082.5387 deg
RA of node: 315.5766 deg
Eccentricity: 0.0019749
Arg of perigee: 250.8932 deg
Mean anomaly: 275.9907 deg
Mean motion: 14.84641585 rev/day
Decay rate: 5.99e-06 rev/day^2
Epoch rev: 2387
Checksum: 346
Satellite: NOAA-14
Catalog number: 23455
Epoch time: 13269.49058539
Element set: 467
Inclination: 098.7985 deg
RA of node: 352.3720 deg
Eccentricity: 0.0010380
Arg of perigee: 073.8029 deg
Mean anomaly: 048.3425 deg
Mean motion: 14.13922003 rev/day
Decay rate: -5.9e-07 rev/day^2
Epoch rev: 96668
Checksum: 326
Satellite: NOAA-15
Catalog number: 25338
Epoch time: 13269.47031581
Element set: 889
Inclination: 098.7339 deg
RA of node: 259.1708 deg
Eccentricity: 0.0010663
Arg of perigee: 187.6411 deg
Mean anomaly: 334.8563 deg
Mean motion: 14.25267795 rev/day
Decay rate: 1.20e-06 rev/day^2
Epoch rev: 79927
Checksum: 344
Satellite: RESURS
Catalog number: 25394
Epoch time: 13268.81501465
Element set: 478
Inclination: 098.3750 deg
RA of node: 239.8903 deg
Eccentricity: 0.0000847
Arg of perigee: 019.5891 deg
Mean anomaly: 040.6300 deg
Mean motion: 14.24336239 rev/day
Decay rate: 7.0e-08 rev/day^2
Epoch rev: 79068
Checksum: 308
Satellite: FENGYUN1
Catalog number: 25730
Epoch time: 13269.76313812
Element set: 972
Inclination: 098.8880 deg
RA of node: 228.0770 deg
Eccentricity: 0.0026597
Arg of perigee: 121.5112 deg
Mean anomaly: 356.2193 deg
Mean motion: 14.10672798 rev/day
Decay rate: 9.28e-06 rev/day^2
Epoch rev: 74036
Checksum: 319
Satellite: OKEAN-0
Catalog number: 25860
Epoch time: 13268.80677851
Element set: 55
Inclination: 098.0036 deg
RA of node: 229.9794 deg
Eccentricity: 0.0001672
Arg of perigee: 129.0863 deg
Mean anomaly: 290.7976 deg
Mean motion: 14.74702449 rev/day
Decay rate: 3.72e-06 rev/day^2
Epoch rev: 76318
Checksum: 335
Satellite: NOAA-16
Catalog number: 26536
Epoch time: 13269.47304914
Element set: 378
Inclination: 099.0314 deg
RA of node: 323.1849 deg
Eccentricity: 0.0010434
Arg of perigee: 204.8218 deg
Mean anomaly: 270.2766 deg
Mean motion: 14.12920589 rev/day
Decay rate: 1.8e-07 rev/day^2
Epoch rev: 67087
Checksum: 312
Satellite: NOAA-17
Catalog number: 27453
Epoch time: 13269.50720128
Element set: 287
Inclination: 098.3130 deg
RA of node: 278.2168 deg
Eccentricity: 0.0011071
Arg of perigee: 223.3980 deg
Mean anomaly: 299.1629 deg
Mean motion: 14.24620751 rev/day
Decay rate: 8.8e-07 rev/day^2
Epoch rev: 58514
Checksum: 307
Satellite: NOAA-18
Catalog number: 28654
Epoch time: 13269.49163372
Element set: 774
Inclination: 099.1131 deg
RA of node: 239.2281 deg
Eccentricity: 0.0013263
Arg of perigee: 285.3538 deg
Mean anomaly: 147.7417 deg
Mean motion: 14.11866401 rev/day
Decay rate: 1.30e-06 rev/day^2
Epoch rev: 43035
Checksum: 300
Satellite: NOAA-19
Catalog number: 33591
Epoch time: 13269.47510660
Element set: 951
Inclination: 098.9117 deg
RA of node: 210.7769 deg
Eccentricity: 0.0014810
Arg of perigee: 140.7285 deg
Mean anomaly: 355.5903 deg
Mean motion: 14.11552049 rev/day
Decay rate: 2.72e-06 rev/day^2
Epoch rev: 23878
Checksum: 315
/EX
SB KEPS @ AMSAT $ORB13269.M
Orbital Elements 13269.MISC
HR AMSAT ORBITAL ELEMENTS FOR MANNED AND MISCELLANEOUS SATELLITES
FROM WA5QGD FORT WORTH,TX September 26, 2013
BID: ORB13269.M
TO ALL RADIO AMATEURS BT
Satellite: HUBBLE
Catalog number: 20580
Epoch time: 13268.61679302
Element set: 339
Inclination: 028.4707 deg
RA of node: 334.2991 deg
Eccentricity: 0.0003192
Arg of perigee: 347.3838 deg
Mean anomaly: 136.6081 deg
Mean motion: 15.03947539 rev/day
Decay rate: 1.520e-05 rev/day^2
Epoch rev: 8483
Checksum: 304
Satellite: ISS
Catalog number: 25544
Epoch time: 13269.88901620
Element set: 683
Inclination: 051.6486 deg
RA of node: 324.3425 deg
Eccentricity: 0.0003256
Arg of perigee: 087.7799 deg
Mean anomaly: 255.4033 deg
Mean motion: 15.50502163 rev/day
Decay rate: 1.8415e-04 rev/day^2
Epoch rev: 85047
Checksum: 308
Satellite: CO-58
Catalog number: 28895
Epoch time: 13269.77241308
Element set: 582
Inclination: 097.8570 deg
RA of node: 120.0808 deg
Eccentricity: 0.0018902
Arg of perigee: 120.2437 deg
Mean anomaly: 240.0639 deg
Mean motion: 14.61238359 rev/day
Decay rate: 4.62e-06 rev/day^2
Epoch rev: 42177
Checksum: 316
Satellite: FALCON
Catalog number: 30776
Epoch time: 13268.58270902
Element set: 704
Inclination: 035.4310 deg
RA of node: 305.6403 deg
Eccentricity: 0.0001127
Arg of perigee: 154.4997 deg
Mean anomaly: 340.6295 deg
Mean motion: 15.11470719 rev/day
Decay rate: 4.881e-05 rev/day^2
Epoch rev: 36061
Checksum: 284
Satellite: MAST
Catalog number: 31126
Epoch time: 13269.82374082
Element set: 862
Inclination: 097.8897 deg
RA of node: 259.9924 deg
Eccentricity: 0.0094557
Arg of perigee: 095.9307 deg
Mean anomaly: 022.6256 deg
Mean motion: 14.54676436 rev/day
Decay rate: 4.72e-06 rev/day^2
Epoch rev: 34209
Checksum: 344
Satellite: CAPE1
Catalog number: 31130
Epoch time: 13268.68627362
Element set: 863
Inclination: 097.9080 deg
RA of node: 255.3202 deg
Eccentricity: 0.0101844
Arg of perigee: 115.4602 deg
Mean anomaly: 245.7175 deg
Mean motion: 14.53622520 rev/day
Decay rate: 6.03e-06 rev/day^2
Epoch rev: 34137
Checksum: 272
Satellite: COMPASS
Catalog number: 32787
Epoch time: 13268.75692333
Element set: 737
Inclination: 097.7418 deg
RA of node: 324.6782 deg
Eccentricity: 0.0013502
Arg of perigee: 337.8712 deg
Mean anomaly: 022.1919 deg
Mean motion: 14.85883152 rev/day
Decay rate: 1.324e-05 rev/day^2
Epoch rev: 29289
Checksum: 329
Satellite: AAUSAT2
Catalog number: 32788
Epoch time: 13268.66583575
Element set: 721
Inclination: 097.7427 deg
RA of node: 325.3027 deg
Eccentricity: 0.0013038
Arg of perigee: 337.3143 deg
Mean anomaly: 022.7495 deg
Mean motion: 14.86375371 rev/day
Decay rate: 1.714e-05 rev/day^2
Epoch rev: 29292
Checksum: 321
Satellite: DO-64
Catalog number: 32789
Epoch time: 13269.45347667
Element set: 754
Inclination: 097.7586 deg
RA of node: 330.4695 deg
Eccentricity: 0.0012207
Arg of perigee: 326.3188 deg
Mean anomaly: 103.1728 deg
Mean motion: 14.89291012 rev/day
Decay rate: 4.334e-05 rev/day^2
Epoch rev: 29319
Checksum: 339
Satellite: CO-66
Catalog number: 32791
Epoch time: 13269.80466356
Element set: 717
Inclination: 097.7416 deg
RA of node: 324.9227 deg
Eccentricity: 0.0014023
Arg of perigee: 335.7660 deg
Mean anomaly: 087.8593 deg
Mean motion: 14.84949999 rev/day
Decay rate: 1.261e-05 rev/day^2
Epoch rev: 29295
Checksum: 363
Satellite: RS-30
Catalog number: 32953
Epoch time: 13269.63578399
Element set: 248
Inclination: 082.5080 deg
RA of node: 005.1009 deg
Eccentricity: 0.0018845
Arg of perigee: 014.7463 deg
Mean anomaly: 345.4163 deg
Mean motion: 12.43037238 rev/day
Decay rate: 1.0e-07 rev/day^2
Epoch rev: 24251
Checksum: 284
Satellite: METEOR-M
Catalog number: 35865
Epoch time: 13269.69760288
Element set: 843
Inclination: 098.5923 deg
RA of node: 319.5727 deg
Eccentricity: 0.0003043
Arg of perigee: 125.2915 deg
Mean anomaly: 234.8549 deg
Mean motion: 14.21892912 rev/day
Decay rate: -2.9e-07 rev/day^2
Epoch rev: 20889
Checksum: 338
Satellite: RS-38
Catalog number: 35869
Epoch time: 13269.71318329
Element set: 796
Inclination: 098.5827 deg
RA of node: 319.4710 deg
Eccentricity: 0.0005209
Arg of perigee: 130.6714 deg
Mean anomaly: 229.4904 deg
Mean motion: 14.22145848 rev/day
Decay rate: 4.3e-07 rev/day^2
Epoch rev: 20892
Checksum: 329
Satellite: JUGNU
Catalog number: 37839
Epoch time: 13269.48064576
Element set: 470
Inclination: 019.9623 deg
RA of node: 053.0145 deg
Eccentricity: 0.0019202
Arg of perigee: 319.6352 deg
Mean anomaly: 085.4935 deg
Mean motion: 14.12182941 rev/day
Decay rate: 3.90e-06 rev/day^2
Epoch rev: 10123
Checksum: 288
Satellite: SRMSAT
Catalog number: 37841
Epoch time: 13269.75688218
Element set: 470
Inclination: 019.9727 deg
RA of node: 065.4065 deg
Eccentricity: 0.0011940
Arg of perigee: 272.5728 deg
Mean anomaly: 174.3995 deg
Mean motion: 14.10249139 rev/day
Decay rate: 3.64e-06 rev/day^2
Epoch rev: 10112
Checksum: 308
Satellite: RAX-2
Catalog number: 37853
Epoch time: 13269.31144913
Element set: 604
Inclination: 101.6976 deg
RA of node: 169.8159 deg
Eccentricity: 0.0232917
Arg of perigee: 097.3095 deg
Mean anomaly: 016.8461 deg
Mean motion: 14.84321580 rev/day
Decay rate: 3.990e-05 rev/day^2
Epoch rev: 10344
Checksum: 315
